Regional Weather Roundup
Issued by NWS Newport/Morehead, NC

Current Version | Previous Version | Text Only | Print | Product List | Glossary On
Versions: 1 2 3 4 5 6 7 8 9 10 11 12 13 14 15 16 17 18 19 20 21 22 23 24 25 26 27 28 29 30 31 32 33 34 35 36 37 38 39 40 41 42 43 44 45 46 47 48 49 50
173
ASUS42 KMHX 010525
RWRMHX
WEATHER ROUNDUP FOR EASTERN NORTH CAROLINA
NATIONAL WEATHER SERVICE NEWPORT/MOREHEAD CITY NC
100 AM EDT WED JUN 01 2016

NOTE: "FAIR" INDICATES FEW OR NO CLOUDS BELOW 12,000 FEET
WITH NO SIGNIFICANT WEATHER AND/OR OBSTRUCTIONS TO VISIBILITY

NCZ015>017-031-032-045>047-102-103-010600-
NORTH COAST

CITY           SKY/WX    TMP DP  RH WIND       PRES   REMARKS
EDENTON        CLOUDY    69  69 100 NE3       29.98S
ELIZABETH CITY CLEAR     69  67  93 E6        29.98S
KITTY HAWK     PTCLDY    68  68  98 CALM      29.96F
MANTEO         PTCLDY    70  70 100 E6        29.98S

$$

NCZ045>047-081-094-103-104-010600-
CENTRAL COAST

CITY           SKY/WX    TMP DP  RH WIND       PRES   REMARKS
FRISCO         LGT RAIN  73  73 100 CALM      29.96F

$$

NCZ095-097-098-100-101-010600-
SOUTHERN COAST

CITY           SKY/WX    TMP DP  RH WIND       PRES   REMARKS
BEAUFORT       CLOUDY    74  72  93 E6        29.94F
CEDAR ISLAND   NOT AVBL
JACKSONVILLE   CLOUDY    73  71  93 NE7       29.93F
PINEY ISLAND   NOT AVBL
WILMINGTON     LGT RAIN  73  72  96 NE6       29.92S


$$

NCZ011>013-027>030-043-044-078>080-089-090>093-098-010600-
COASTAL PLAIN

CITY           SKY/WX    TMP DP  RH WIND       PRES   REMARKS
AHOSKIE        PTCLDY    67  65  95 CALM      29.98F
CLINTON        CLOUDY    73  72  98 CALM      29.95F
ELIZABETHTOWN  CLOUDY    72  72 100 CALM      29.94F
GOLDSBORO      CLOUDY    71  71 100 NE3       29.95S
GREENVILLE     CLOUDY    68  68 100 CALM      29.99S
HAVELOCK       MOCLDY    74  71  91 NE6       29.96S
KENANSVILLE    CLOUDY    71  70  97 CALM      29.96F
KINSTON        CLOUDY    71  69  95 NE3       29.97S
NEW BERN       CLOUDY    72  69  90 NE5       29.96S
RICHLANDS      CLOUDY    71  71 100 N6        29.95F
ROCKY MOUNT    PTCLDY    71  68  90 NE5       29.97F
WASHINGTON     PTCLDY    67  67  97 CALM      29.97S
WHITEVILLE     CLOUDY    73  71  93 N3        29.93F

$$

AMZ130-135-150-152-154-156-158-170-250-252-270-ANZ085-086-088-633-658-670-010600-
MARINE OBSERVATIONS

STATION/POSITION TIME  TEMP    WIND        PRES    WAVE   SWELL
                       AIR SEA DIR/SP/G            HT/PER HT/PER
                 (UTC) (F)     (DEG/KT/KT) (MB)    (FT/S) (FT/S)
CHESAPEAKE LIGHT 0500   71      60/  7/  8 1016.0
64 E VA BEACH    0450   73 70   90/  6/  6 1015.1    4/ 8   3/ 8
DUCK             0500   69 62   60/  6/  7 1014.3
2 E DUCK         0411      67                N/A     3/ 7
OREGON INLET     0500   71 71   20/  6/  7 1014.7
13E OREGON INLT  0500      71                N/A     3/ 8   3/ 8
HATTERAS CG      0500   74 76  110/  2/  3 1014.1
DIAMOND BUOY     0450   79 80  170/ 14/ 17 1014.1    4/ 8   3/ 8
CAPE LOOKOUT     0500   75      90/  4/  5 1013.6
BEAUFORT LAB     0500   74 77   70/  5/  6 1013.1
30 SE NEW RVR IN 0425      76                N/A     4/ 8
27 SE WRIGHTSVLE 0508   75 76   50/  8/ 12 1012.4
5 SE WRIGHTSVLE  0508   75 76   80/ 12/ 16 1013.3
225 S CAPE HAT   0450   76 77  160/ 14/ 16 1015.6    5/ 8   3/ 8
41 SE CHARLESTON 0450   76 77  300/  8/ 10 1013.3    4/ 8   3/ 8

$$




USA.gov is the U.S. government's official web portal to all federal, state and local government web resources and services.